SCP
0 -0 0 -0 0 -0 0 0 0 0 0 0 0 0 0 -0 -0 -0 0 0 0 0 0 0 0 0 0 0 0 0 0 0 0 0 0 0 0 0 0 0 0 0 0 0
-0 -0 -0 0 0 0 0 0 0 0 0 0 0 0 0 -0 -0 -0 0 0 0 0 0 0 0 0 0 0 0 0 0 0 0 0 0 0 0 0 0 0 0 0 0 0
-0 -0 -0 0 0 0 0 0 0 0 0 0 0 0 0 0 -0 0 0 -0 0 0 0 0 0 0 0 0 0 0 0 0 0 0 0 0 0 0 0 0 0 0 0 0
-0 0 0 0 0 0 0 0 0 0 0 0 0 0 0 0 -0 0 0 0 0 0 0 0 0 0 0 0 0 0 0 0 0 0 0 0 0 0 0 0 0 0 0 0
0 0 0 0 0 0 0 0 0 0 0 0 0 0 0 0 0 -0 0 0 0 0 0 0 0 0 0 0 0 0 0 0 0 0 0 0 0 0 0 0 0 0 0 0
0 0 0 0 0 0 0 0 0 0 0 0 0 0 0 0 0 -0 0 -0 0 0 0 0 0 0 0 0 0 0 0 0 0 0 0 0 0 0 0 0 0 0 0 0
0 0 0 0 0 0 0 0 0 0 0 0 0 0 0 0 0 0 0 -0 -0 -0 -0 -0 0 0 1 1 0 0 0 0 0 0 0 0 0 0 -0 0 0 0 0 0
0 0 0 0 0 0 0 0 0 0 0 0 0 0 0 0 -0 -0 -0 -0 -0 -0 0 0 0 0 0 1 0 0 0 0 0 0 0 0 0 0 0 0 0 0 0 0
0 0 0 0 0 0 0 0 0 0 0 0 0 0 0 0 0 0 0 0 -0 -0 -0 0 0 0 0 -0 0 0 0 0 0 0 0 0 0 0 0 0 0 0 0 0
0 0 0 0 0 0 0 0 0 0 0 0 0 0 0 0 0 0 0 -0 -0 0 0 0 0 0 0 -0 0 0 0 0 0 0 0 1 0 0 0 0 0 0 0 0
0 0 0 0 0 0 0 0 0 0 0 0 0 0 0 0 0 0 0 0 0 0 0 0 0 0 0 0 0 0 0 0 0 0 0 0 1 0 0 0 0 0 0 0
0 0 0 0 0 0 0 0 0 0 0 0 0 0 0 0 0 0 0 0 0 0 0 0 0 0 0 0 0 1 0 0 0 0 0 0 0 0 0 0 0 0 0 0
0 0 0 0 0 0 0 0 0 0 0 0 0 0 0 0 0 0 0 0 0 0 0 0 0 0 0 1 0 0 0 0 0 0 0 0 0 0 0 0 0 0 0 0
0 0 0 0 0 0 0 0 0 0 0 0 0 0 0 0 0 0 0 0 0 0 0 0 0 1 0 1 1 0 0 0 0 0 0 0 0 0 0 -0 0 0 0 0
0 0 0 0 0 0 0 0 0 0 0 0 0 0 0 0 0 0 0 0 0 0 0 0 1 1 0 0 0 0 0 0 0 0 0 0 0 0 0 0 0 0 0 0
0 0 0 0 0 0 0 0 0 0 0 0 0 0 0 0 0 0 0 0 0 0 0 0 1 1 1 1 0 0 0 0 0 0 0 0 0 0 0 0 0 0 0 0
0 0 0 0 0 0 0 0 0 0 0 0 0 0 0 0 0 0 0 0 0 0 0 1 1 1 1 0 1 0 0 0 0 0 0 0 0 0 0 0 0 0 0 0
0 0 0 0 0 0 0 0 0 0 0 0 0 0 0 0 0 0 0 0 0 0 0 1 1 1 0 0 0 0 0 0 0 0 0 0 0 0 0 0 0 0 0 0
0 0 0 0 0 0 0 0 0 0 0 0 0 0 0 0 0 0 0 0 0 0 1 1 1 0 0 0 0 0 0 0 0 0 0 0 0 0 0 0 0 0 0 0
0 0 0 0 0 0 0 0 0 0 0 -0 0 0 0 0 0 0 0 0 1 1 1 1 0 0 0 0 0 0 0 0 0 0 0 0 0 0 0 0 0 0 0 0
0 0 0 0 0 0 0 0 0 0 0 0 0 0 0 0 0 0 0 0 1 1 1 0 0 0 0 0 0 0 0 0 0 0 0 0 0 0 0 0 0 0 0 0
0 0 0 0 0 0 0 0 0 0 0 0 0 0 0 0 0 0 0 1 1 1 0 1 1 0 0 0 0 0 0 0 0 0 0 0 0 0 0 0 0 0 0 0
0 0 0 0 0 0 0 0 0 0 1 0 0 0 0 0 0 0 1 1 1 1 1 1 1 0 0 0 0 0 0 0 0 0 0 0 0 0 0 0 0 0 0 0
0 0 0 0 0 0 0 0 0 0 0 0 0 0 0 0 0 0 1 1 1 1 1 1 1 0 0 0 0 0 0 0 0 0 0 0 0 0 0 0 0 0 0 0
1 0 0 0 0 0 0 0 0 0 0 0 0 0 0 0 0 1 1 1 1 1 1 1 1 0 0 0 0 0 0 0 0 0 0 0 0 0 0 0 0 0 0 0
0 1 0 0 0 0 1 0 0 0 0 0 0 0 0 0 0 1 1 1 1 1 1 1 1 0 0 0 0 0 0 0 0 0 0 0 0 0 0 0 0 0 0 0
Wind_Speed_500mb
7 4 11 20 7 4 10 6 4 1 4 6 6 7 9 13 13 10 2 3 2 9 5 14 21 32 37 26 8 20 40 42 39 32 22 22 24 25 23 21 21 21 21 17
3 4 5 12 1 6 6 8 7 3 1 4 8 17 10 12 1 7 9 5 11 14 5 8 18 25 30 30 19 10 32 38 34 29 22 22 22 26 25 23 23 23 22 19
7 5 5 5 8 9 4 14 12 4 2 8 14 6 4 4 9 11 8 2 6 19 6 5 11 20 31 26 20 10 16 31 33 30 26 27 27 28 28 25 22 21 20 22
9 2 5 16 4 5 14 7 7 11 6 5 10 8 2 3 14 4 6 5 10 16 14 8 11 12 19 20 13 6 10 26 34 36 32 32 31 31 29 26 25 22 19 19
7 7 6 14 5 6 4 14 18 11 8 8 7 7 4 4 10 12 6 4 7 14 20 14 17 16 14 18 14 8 10 24 34 35 36 37 39 34 32 28 24 22 21 22
12 5 7 2 11 7 24 29 18 6 3 7 3 3 6 8 8 10 11 18 17 17 23 23 21 22 20 19 14 7 5 17 34 33 38 42 43 38 36 31 29 25 24 23
6 3 3 4 11 6 6 15 6 5 6 6 1 8 10 11 6 9 20 27 24 24 27 31 29 24 25 27 16 4 3 10 31 26 32 45 42 33 39 36 30 27 29 26
2 7 2 5 2 6 14 2 5 9 7 2 6 6 5 7 24 21 18 24 23 28 32 32 35 38 37 29 26 17 11 22 26 26 33 36 31 32 37 40 36 33 34 31
7 7 3 5 5 2 8 9 6 11 3 5 2 7 10 2 9 18 20 23 30 35 38 39 39 40 36 24 13 27 33 38 35 34 21 32 28 27 24 33 38 40 36 35
7 6 1 3 8 19 4 11 4 3 7 5 3 8 5 5 10 15 26 33 35 35 37 40 44 47 47 41 28 19 36 40 39 39 41 33 31 30 21 20 31 36 35 36
9 4 2 3 4 2 6 4 9 4 3 5 4 4 8 6 6 13 22 24 25 30 34 41 41 47 47 48 42 32 30 33 34 33 33 35 33 30 26 15 26 32 34 34
7 7 5 2 4 5 1 2 5 5 6 1 5 4 6 5 1 5 18 20 24 27 31 30 33 37 44 44 42 38 33 30 27 24 26 31 34 33 27 17 22 27 33 34
15 3 4 4 5 5 5 3 6 7 1 11 7 3 6 7 14 14 17 18 21 24 30 30 28 30 31 36 41 31 27 24 21 25 30 21 24 23 23 24 24 31 31 28
17 5 6 11 2 3 4 6 6 5 6 6 14 7 10 10 11 11 15 16 17 19 23 25 23 24 23 34 34 30 22 20 27 23 27 23 17 22 24 26 31 30 25 22
4 5 4 2 4 7 6 9 12 15 10 10 9 11 12 13 9 9 13 11 12 19 19 22 21 22 24 32 30 21 20 23 26 21 23 24 24 20 18 23 29 28 27 24
3 6 5 4 6 3 9 13 11 13 8 14 6 11 9 10 8 8 6 6 12 17 15 18 19 21 23 27 17 14 18 19 17 20 22 24 29 28 22 20 27 29 32 41
2 9 8 5 5 1 13 17 18 6 9 8 14 6 21 14 11 6 5 2 10 13 16 16 16 20 22 19 8 14 20 20 22 23 19 20 25 29 25 21 13 13 18 25
8 7 2 5 6 7 4 1 6 13 13 21 6 16 25 12 10 6 5 6 9 12 13 13 15 17 17 9 8 12 16 14 19 20 22 21 19 18 17 14 11 8 6 11
4 7 5 5 7 9 9 9 10 12 10 23 21 22 19 10 6 8 12 9 9 11 11 11 12 12 5 8 10 10 11 8 12 15 18 18 15 12 21 19 19 19 19 20
11 9 4 5 7 11 8 5 12 8 14 30 31 28 25 18 8 3 16 12 7 8 9 8 7 10 9 13 12 12 11 7 11 9 11 13 14 17 21 22 24 24 24 24
5 4 6 6 8 13 11 15 14 7 7 10 35 34 30 14 14 9 16 15 11 8 8 7 11 15 13 13 14 18 11 6 6 8 11 15 20 25 26 27 27 28 28 27
6 7 5 5 6 13 19 15 13 3 5 12 33 36 36 29 22 24 20 17 12 10 9 11 14 16 14 13 13 14 8 8 9 13 16 19 24 25 27 26 25 28 30 30
5 5 2 12 8 4 23 7 22 6 2 13 34 42 37 34 36 32 26 20 17 14 13 13 14 13 13 13 13 13 12 12 14 18 18 21 26 29 29 30 28 25 26 28
5 6 6 4 4 16 27 33 41 20 22 19 30 41 40 44 42 37 29 25 23 19 17 13 14 12 12 14 17 18 18 17 16 16 20 24 25 27 27 28 27 29 30 32
3 12 6 10 24 23 27 31 34 34 45 38 32 40 43 45 46 41 34 30 25 21 19 17 17 12 10 16 20 21 21 19 18 16 20 21 25 29 31 30 29 29 31 35
15 8 6 13 15 12 20 29 25 22 30 33 33 39 41 45 50 46 41 32 27 23 21 21 21 17 14 17 18 19 21 19 17 19 21 22 26 29 30 32 32 33 31 33
Wind_Direction_500mb
8 306 358 342 316 163 151 162 217 132 79 283 329 283 261 301 299 264 215 12 300 341 26 63 35 27 18 19 13 230 218 219 219 221 229 247 256 236 239 240 240 242 250 266
259 218 291 321 137 139 143 179 205 232 351 314 1 310 315 347 337 267 324 344 26 22 66 61 33 19 21 25 26 249 225 227 232 230 240 261 259 238 244 239 241 249 257 263
243 285 291 345 343 258 264 228 184 260 101 95 322 262 12 42 323 327 331 222 27 23 6 13 11 14 18 22 22 351 259 244 243 242 249 268 261 244 247 245 246 249 253 256
257 226 309 330 309 212 293 295 160 144 175 322 357 329 141 345 317 5 345 267 345 353 354 299 312 339 8 16 25 16 259 247 242 247 256 268 274 253 252 255 254 251 252 245
276 257 277 308 11 224 356 112 106 91 58 318 37 292 35 344 56 31 75 33 360 5 2 338 299 304 329 348 345 299 255 253 255 259 266 273 284 266 260 258 254 244 246 246
276 293 249 65 48 116 138 104 93 91 30 270 44 321 319 5 5 334 311 310 313 330 340 340 313 308 314 314 307 335 294 289 261 264 278 279 285 278 268 262 258 255 247 249
309 282 286 143 109 172 177 157 127 208 238 278 197 220 279 292 325 315 323 334 343 339 343 345 336 315 310 286 266 266 88 326 249 270 287 281 280 265 266 268 269 262 250 253
322 181 210 123 285 221 171 256 210 209 203 298 171 241 93 348 316 301 316 329 348 358 356 353 348 343 330 299 254 252 262 282 252 268 283 277 274 258 253 261 265 264 262 264
174 257 320 64 116 254 155 214 75 107 36 251 344 259 267 53 38 26 17 5 358 357 359 357 351 359 8 4 259 238 263 296 272 272 263 276 258 253 265 255 258 262 263 259
190 269 33 82 136 58 239 122 196 116 165 234 232 277 254 310 15 17 10 0 356 9 20 24 22 23 20 16 8 290 275 289 268 274 252 289 254 245 256 270 267 266 268 265
141 219 217 247 18 308 161 182 67 97 304 214 238 217 194 195 39 9 14 27 38 39 35 31 33 25 19 10 2 349 330 321 313 318 269 287 252 247 247 276 281 263 265 266
164 142 218 105 4 279 326 146 178 257 204 229 309 250 54 247 350 39 71 60 52 42 29 21 16 15 12 5 9 4 4 7 3 341 305 290 260 262 251 250 262 256 261 261
175 186 170 148 178 168 248 127 92 95 184 208 227 193 26 145 115 76 72 58 50 30 20 19 15 18 16 2 2 8 12 10 1 329 332 313 282 257 250 252 250 262 268 258
136 137 200 249 196 114 223 196 170 186 225 186 235 157 145 146 126 103 91 62 35 18 14 10 7 12 9 0 352 355 9 9 348 337 338 330 278 285 268 260 273 277 260 252
155 169 177 192 242 199 222 237 188 210 227 250 340 214 159 175 150 124 94 56 22 9 9 360 356 8 4 356 351 11 19 357 354 352 358 353 339 320 286 273 276 279 257 244
9 146 151 187 348 248 273 265 255 250 238 235 224 215 168 187 170 130 113 46 5 358 354 350 355 1 357 353 4 26 8 4 7 358 359 23 33 26 355 313 292 277 269 266
71 148 168 210 38 280 272 259 232 215 203 204 228 230 166 191 179 164 196 357 339 342 340 341 353 348 348 346 19 17 6 10 11 8 9 3 4 3 1 11 2 304 277 271
129 111 67 116 135 228 321 258 280 249 251 215 221 172 180 175 163 180 218 275 325 336 327 341 341 342 344 7 23 12 1 10 0 2 7 4 17 41 25 9 1 351 330 288
68 131 117 216 205 304 251 204 196 206 275 209 211 180 180 147 186 241 225 281 313 316 317 326 332 347 339 351 356 355 358 354 1 2 21 31 30 12 356 0 344 331 319 310
84 78 258 156 249 281 289 178 176 166 274 201 195 180 174 169 223 266 218 251 271 274 290 301 342 351 327 335 341 347 348 359 4 25 14 3 343 332 331 329 332 332 325 317
131 102 228 197 248 276 234 163 166 203 308 194 193 187 177 196 203 192 209 224 234 252 290 287 324 333 325 329 338 338 342 334 332 5 347 330 324 320 319 317 312 315 317 312
206 175 216 142 230 269 151 137 210 205 211 234 199 197 199 209 212 223 217 223 228 255 272 280 300 320 324 327 327 335 317 321 329 313 320 317 318 321 318 315 311 308 310 309
230 245 300 218 245 337 221 290 221 168 217 228 208 207 211 218 222 220 220 227 237 244 249 277 288 302 311 318 310 309 283 291 318 324 320 321 325 326 325 328 328 332 340 330
187 169 235 283 193 260 251 260 254 261 257 279 231 213 216 222 224 225 222 234 240 243 247 271 281 280 301 316 306 300 295 285 296 312 321 329 340 342 339 339 341 336 332 326
55 162 223 248 276 283 267 265 277 265 256 263 227 227 231 229 230 231 231 239 237 244 244 265 255 249 293 324 325 309 299 292 294 306 322 331 337 338 338 338 335 332 328 324
191 194 240 289 341 305 309 336 328 286 272 255 237 232 238 235 235 236 236 237 234 243 246 249 237 242 282 311 318 312 306 299 299 312 323 325 326 327 330 333 334 335 337 342
Wind_Speed_850mb
7 4 11 20 7 4 10 6 4 1 4 6 6 7 9 13 13 10 2 3 2 9 5 14 21 32 37 26 8 20 40 42 39 32 22 22 24 25 23 21 21 21 21 17
3 4 5 12 1 6 6 8 7 3 1 4 8 17 10 12 1 7 9 5 11 14 5 8 18 25 30 30 19 10 32 38 34 29 22 22 22 26 25 23 23 23 22 19
7 5 5 5 8 9 4 14 12 4 2 8 14 6 4 4 9 11 8 2 6 19 6 5 11 20 31 26 20 10 16 31 33 30 26 27 27 28 28 25 22 21 20 22
9 2 5 16 4 5 14 7 7 11 6 5 10 8 2 3 14 4 6 5 10 16 14 8 11 12 19 20 13 6 10 26 34 36 32 32 31 31 29 26 25 22 19 19
7 7 6 14 5 6 4 14 18 11 8 8 7 7 4 4 10 12 6 4 7 14 20 14 17 16 14 18 14 8 10 24 34 35 36 37 39 34 32 28 24 22 21 22
12 5 7 2 11 7 24 29 18 6 3 7 3 3 6 8 8 10 11 18 17 17 23 23 21 22 20 19 14 7 5 17 34 33 38 42 43 38 36 31 29 25 24 23
6 3 3 4 11 6 6 15 6 5 6 6 1 8 10 11 6 9 20 27 24 24 27 31 29 24 25 27 16 4 3 10 31 26 32 45 42 33 39 36 30 27 29 26
2 7 2 5 2 6 14 2 5 9 7 2 6 6 5 7 24 21 18 24 23 28 32 32 35 38 37 29 26 17 11 22 26 26 33 36 31 32 37 40 36 33 34 31
7 7 3 5 5 2 8 9 6 11 3 5 2 7 10 2 9 18 20 23 30 35 38 39 39 40 36 24 13 27 33 38 35 34 21 32 28 27 24 33 38 40 36 35
7 6 1 3 8 19 4 11 4 3 7 5 3 8 5 5 10 15 26 33 35 35 37 40 44 47 47 41 28 19 36 40 39 39 41 33 31 30 21 20 31 36 35 36
9 4 2 3 4 2 6 4 9 4 3 5 4 4 8 6 6 13 22 24 25 30 34 41 41 47 47 48 42 32 30 33 34 33 33 35 33 30 26 15 26 32 34 34
7 7 5 2 4 5 1 2 5 5 6 1 5 4 6 5 1 5 18 20 24 27 31 30 33 37 44 44 42 38 33 30 27 24 26 31 34 33 27 17 22 27 33 34
15 3 4 4 5 5 5 3 6 7 1 11 7 3 6 7 14 14 17 18 21 24 30 30 28 30 31 36 41 31 27 24 21 25 30 21 24 23 23 24 24 31 31 28
17 5 6 11 2 3 4 6 6 5 6 6 14 7 10 10 11 11 15 16 17 19 23 25 23 24 23 34 34 30 22 20 27 23 27 23 17 22 24 26 31 30 25 22
4 5 4 2 4 7 6 9 12 15 10 10 9 11 12 13 9 9 13 11 12 19 19 22 21 22 24 32 30 21 20 23 26 21 23 24 24 20 18 23 29 28 27 24
3 6 5 4 6 3 9 13 11 13 8 14 6 11 9 10 8 8 6 6 12 17 15 18 19 21 23 27 17 14 18 19 17 20 22 24 29 28 22 20 27 29 32 41
2 9 8 5 5 1 13 17 18 6 9 8 14 6 21 14 11 6 5 2 10 13 16 16 16 20 22 19 8 14 20 20 22 23 19 20 25 29 25 21 13 13 18 25
8 7 2 5 6 7 4 1 6 13 13 21 6 16 25 12 10 6 5 6 9 12 13 13 15 17 17 9 8 12 16 14 19 20 22 21 19 18 17 14 11 8 6 11
4 7 5 5 7 9 9 9 10 12 10 23 21 22 19 10 6 8 12 9 9 11 11 11 12 12 5 8 10 10 11 8 12 15 18 18 15 12 21 19 19 19 19 20
11 9 4 5 7 11 8 5 12 8 14 30 31 28 25 18 8 3 16 12 7 8 9 8 7 10 9 13 12 12 11 7 11 9 11 13 14 17 21 22 24 24 24 24
5 4 6 6 8 13 11 15 14 7 7 10 35 34 30 14 14 9 16 15 11 8 8 7 11 15 13 13 14 18 11 6 6 8 11 15 20 25 26 27 27 28 28 27
6 7 5 5 6 13 19 15 13 3 5 12 33 36 36 29 22 24 20 17 12 10 9 11 14 16 14 13 13 14 8 8 9 13 16 19 24 25 27 26 25 28 30 30
5 5 2 12 8 4 23 7 22 6 2 13 34 42 37 34 36 32 26 20 17 14 13 13 14 13 13 13 13 13 12 12 14 18 18 21 26 29 29 30 28 25 26 28
5 6 6 4 4 16 27 33 41 20 22 19 30 41 40 44 42 37 29 25 23 19 17 13 14 12 12 14 17 18 18 17 16 16 20 24 25 27 27 28 27 29 30 32
3 12 6 10 24 23 27 31 34 34 45 38 32 40 43 45 46 41 34 30 25 21 19 17 17 12 10 16 20 21 21 19 18 16 20 21 25 29 31 30 29 29 31 35
15 8 6 13 15 12 20 29 25 22 30 33 33 39 41 45 50 46 41 32 27 23 21 21 21 17 14 17 18 19 21 19 17 19 21 22 26 29 30 32 32 33 31 33
Wind_Direction_850mb
8 306 358 342 316 163 151 162 217 132 79 283 329 283 261 301 299 264 215 12 300 341 26 63 35 27 18 19 13 230 218 219 219 221 229 247 256 236 239 240 240 242 250 266
259 218 291 321 137 139 143 179 205 232 351 314 1 310 315 347 337 267 324 344 26 22 66 61 33 19 21 25 26 249 225 227 232 230 240 261 259 238 244 239 241 249 257 263
243 285 291 345 343 258 264 228 184 260 101 95 322 262 12 42 323 327 331 222 27 23 6 13 11 14 18 22 22 351 259 244 243 242 249 268 261 244 247 245 246 249 253 256
257 226 309 330 309 212 293 295 160 144 175 322 357 329 141 345 317 5 345 267 345 353 354 299 312 339 8 16 25 16 259 247 242 247 256 268 274 253 252 255 254 251 252 245
276 257 277 308 11 224 356 112 106 91 58 318 37 292 35 344 56 31 75 33 360 5 2 338 299 304 329 348 345 299 255 253 255 259 266 273 284 266 260 258 254 244 246 246
276 293 249 65 48 116 138 104 93 91 30 270 44 321 319 5 5 334 311 310 313 330 340 340 313 308 314 314 307 335 294 289 261 264 278 279 285 278 268 262 258 255 247 249
309 282 286 143 109 172 177 157 127 208 238 278 197 220 279 292 325 315 323 334 343 339 343 345 336 315 310 286 266 266 88 326 249 270 287 281 280 265 266 268 269 262 250 253
322 181 210 123 285 221 171 256 210 209 203 298 171 241 93 348 316 301 316 329 348 358 356 353 348 343 330 299 254 252 262 282 252 268 283 277 274 258 253 261 265 264 262 264
174 257 320 64 116 254 155 214 75 107 36 251 344 259 267 53 38 26 17 5 358 357 359 357 351 359 8 4 259 238 263 296 272 272 263 276 258 253 265 255 258 262 263 259
190 269 33 82 136 58 239 122 196 116 165 234 232 277 254 310 15 17 10 0 356 9 20 24 22 23 20 16 8 290 275 289 268 274 252 289 254 245 256 270 267 266 268 265
141 219 217 247 18 308 161 182 67 97 304 214 238 217 194 195 39 9 14 27 38 39 35 31 33 25 19 10 2 349 330 321 313 318 269 287 252 247 247 276 281 263 265 266
164 142 218 105 4 279 326 146 178 257 204 229 309 250 54 247 350 39 71 60 52 42 29 21 16 15 12 5 9 4 4 7 3 341 305 290 260 262 251 250 262 256 261 261
175 186 170 148 178 168 248 127 92 95 184 208 227 193 26 145 115 76 72 58 50 30 20 19 15 18 16 2 2 8 12 10 1 329 332 313 282 257 250 252 250 262 268 258
136 137 200 249 196 114 223 196 170 186 225 186 235 157 145 146 126 103 91 62 35 18 14 10 7 12 9 0 352 355 9 9 348 337 338 330 278 285 268 260 273 277 260 252
155 169 177 192 242 199 222 237 188 210 227 250 340 214 159 175 150 124 94 56 22 9 9 360 356 8 4 356 351 11 19 357 354 352 358 353 339 320 286 273 276 279 257 244
9 146 151 187 348 248 273 265 255 250 238 235 224 215 168 187 170 130 113 46 5 358 354 350 355 1 357 353 4 26 8 4 7 358 359 23 33 26 355 313 292 277 269 266
71 148 168 210 38 280 272 259 232 215 203 204 228 230 166 191 179 164 196 357 339 342 340 341 353 348 348 346 19 17 6 10 11 8 9 3 4 3 1 11 2 304 277 271
129 111 67 116 135 228 321 258 280 249 251 215 221 172 180 175 163 180 218 275 325 336 327 341 341 342 344 7 23 12 1 10 0 2 7 4 17 41 25 9 1 351 330 288
68 131 117 216 205 304 251 204 196 206 275 209 211 180 180 147 186 241 225 281 313 316 317 326 332 347 339 351 356 355 358 354 1 2 21 31 30 12 356 0 344 331 319 310
84 78 258 156 249 281 289 178 176 166 274 201 195 180 174 169 223 266 218 251 271 274 290 301 342 351 327 335 341 347 348 359 4 25 14 3 343 332 331 329 332 332 325 317
131 102 228 197 248 276 234 163 166 203 308 194 193 187 177 196 203 192 209 224 234 252 290 287 324 333 325 329 338 338 342 334 332 5 347 330 324 320 319 317 312 315 317 312
206 175 216 142 230 269 151 137 210 205 211 234 199 197 199 209 212 223 217 223 228 255 272 280 300 320 324 327 327 335 317 321 329 313 320 317 318 321 318 315 311 308 310 309
230 245 300 218 245 337 221 290 221 168 217 228 208 207 211 218 222 220 220 227 237 244 249 277 288 302 311 318 310 309 283 291 318 324 320 321 325 326 325 328 328 332 340 330
187 169 235 283 193 260 251 260 254 261 257 279 231 213 216 222 224 225 222 234 240 243 247 271 281 280 301 316 306 300 295 285 296 312 321 329 340 342 339 339 341 336 332 326
55 162 223 248 276 283 267 265 277 265 256 263 227 227 231 229 230 231 231 239 237 244 244 265 255 249 293 324 325 309 299 292 294 306 322 331 337 338 338 338 335 332 328 324
191 194 240 289 341 305 309 336 328 286 272 255 237 232 238 235 235 236 236 237 234 243 246 249 237 242 282 311 318 312 306 299 299 312 323 325 326 327 330 333 334 335 337 342